Location: Buena Vista
(37.7110°N, 119.7938°W)
Time: 06:16:18
(UTC+00:00)

Hubble Space Telescope - Pass Details

Date: 21 August 2024
Orbit: 505 x 509 km, 28.5° (Epoch: 19 September)

Event Time Altitude Azimuth Distance (km) Brightness Sun altitude
Exits shadow 11:38:54 11° 162° (SSE) 1,648 3.1 -19.1°
Drops below altitude 10° 11:39:09 10° 158° (SSE) 1,705 3.2 -19.1°
Sets 11:42:09 0° 134° (SE) 2,589 4.4 -18.6°
